Vorticity
nan nan nan nan nan nan nan nan nan nan nan nan nan nan nan nan nan nan nan nan nan nan nan nan nan nan nan nan nan nan nan nan nan nan nan nan nan nan nan nan nan nan nan nan
nan 10 20 24 15 10 11 11 11 11 9 8 6 3 5 9 12 7 9 9 12 10 8 11 10 5 15 14 4 9 10 6 7 12 11 13 16 11 9 5 5 9 4 nan
nan 12 10 18 28 11 8 10 13 8 7 6 9 10 9 8 8 9 6 10 11 10 9 5 8 9 11 10 5 7 9 9 5 -2 1 10 13 13 10 4 1 10 2 nan
nan 9 13 12 23 21 13 9 9 10 10 14 11 6 10 9 5 13 9 9 8 2 7 11 8 7 7 9 11 5 7 11 12 6 3 5 4 11 13 8 0 -0 6 nan
nan 8 7 14 14 31 22 7 13 10 5 13 19 10 7 10 5 6 4 6 11 6 4 1 5 18 10 10 12 5 5 7 13 17 20 13 12 9 10 11 10 4 4 nan
nan 10 8 5 15 32 26 12 6 11 17 10 8 10 6 5 9 6 10 11 11 17 15 8 10 11 12 17 14 8 4 6 7 9 14 13 23 26 19 12 11 11 11 nan
nan 7 10 7 6 22 26 14 12 13 12 12 6 5 12 13 8 5 10 11 9 14 18 15 16 15 11 12 8 8 8 7 3 9 8 6 8 19 24 23 15 10 6 nan
nan 8 7 10 10 15 21 17 17 13 16 15 12 8 4 8 9 11 5 9 12 9 4 7 6 10 13 18 16 7 8 8 5 13 6 1 16 20 12 14 19 22 13 nan
nan 8 8 9 7 19 23 12 13 17 21 23 14 12 9 6 8 9 12 15 17 9 6 10 9 4 8 12 11 15 14 10 11 7 9 11 14 13 10 9 16 18 17 nan
nan 10 9 9 6 16 23 12 11 16 12 19 23 17 17 12 7 9 21 18 10 11 10 10 14 8 10 9 8 11 13 17 15 5 4 2 12 16 5 8 15 13 11 nan
nan 11 12 7 12 15 18 9 8 13 11 7 10 22 16 13 18 11 9 6 12 14 11 11 12 16 14 8 9 14 11 8 12 10 12 18 10 9 9 9 11 11 9 nan
nan 11 11 11 11 15 17 12 7 12 12 9 11 11 12 12 14 15 9 8 13 11 12 11 12 11 14 16 6 6 8 10 13 14 6 15 9 3 10 6 8 7 10 nan
nan 9 10 12 12 14 16 14 9 12 11 10 11 12 15 17 10 9 11 9 11 8 11 14 13 13 13 15 13 6 8 12 9 11 11 5 7 6 2 7 11 10 10 nan
nan 10 13 12 10 11 18 19 13 11 8 10 12 7 6 8 10 10 8 9 9 13 14 12 10 12 11 11 15 11 14 12 8 3 9 17 5 -1 9 13 10 8 10 nan
nan 10 13 16 10 14 19 14 13 13 11 10 7 12 19 15 9 9 7 9 9 9 11 11 10 10 9 11 13 15 12 8 8 5 5 6 5 11 15 9 9 11 10 nan
nan 11 12 19 15 15 18 13 9 9 10 9 9 15 17 14 17 22 16 5 7 9 10 10 10 11 13 11 8 17 12 12 18 11 9 10 18 10 7 9 10 12 11 nan
nan 13 13 18 18 13 9 8 15 11 8 12 11 10 10 10 13 16 18 12 8 11 11 11 10 12 11 11 7 8 17 17 15 14 20 15 9 7 7 12 14 15 15 nan
nan 15 11 16 22 17 14 6 7 16 12 10 12 12 8 11 13 12 11 11 11 10 9 12 12 11 12 8 6 7 11 10 4 9 18 15 10 11 12 15 14 13 14 nan
nan 18 21 22 19 12 5 8 16 16 13 13 10 8 10 10 8 11 12 12 10 10 13 13 11 10 8 9 9 9 11 11 7 10 11 12 13 11 12 13 13 13 11 nan
nan 17 17 12 5 8 17 16 12 13 13 11 8 11 9 8 13 13 13 11 11 11 14 10 11 10 3 6 14 12 11 12 16 16 9 10 10 11 11 13 14 14 14 nan
nan 12 10 8 13 16 13 11 12 13 12 8 11 9 14 17 12 9 10 11 15 13 12 9 12 4 2 12 17 14 14 15 15 14 12 12 10 11 11 11 12 13 14 nan
nan 14 13 9 13 14 11 12 12 11 10 10 10 12 14 13 14 13 10 9 11 14 10 12 9 3 6 14 13 13 14 14 12 12 11 11 12 13 12 9 9 10 11 nan
nan 10 12 12 12 12 10 12 13 9 7 9 10 14 15 15 12 12 14 14 8 11 11 12 7 7 10 11 11 11 11 11 10 10 11 11 10 10 11 10 10 11 10 nan
nan 10 11 15 14 10 9 10 10 12 8 8 15 14 11 13 11 13 12 12 15 14 11 10 7 8 11 13 12 9 9 9 9 9 9 9 10 10 10 10 11 11 10 nan
nan 12 11 12 12 10 10 12 11 10 11 13 16 16 11 11 11 12 14 13 12 11 14 11 9 11 11 10 11 10 9 9 8 9 10 9 10 11 9 9 10 10 10 nan
nan 13 10 10 11 9 11 12 12 9 17 19 12 11 12 10 13 11 14 14 11 13 11 10 10 11 11 9 11 12 13 12 10 9 10 9 10 10 11 11 9 9 10 nan
nan nan nan nan nan nan nan nan nan nan nan nan nan nan nan nan nan nan nan nan nan nan nan nan nan nan nan nan nan nan nan nan nan nan nan nan nan nan nan nan nan nan nan nan
CAPE
3 35 53 61 63 31 2 0 0 0 0 0 0 0 0 0 0 0 0 0 0 0 0 0 0 0 0 0 0 0 0 0 0 0 0 0 1 6 11 24 6 0 0 0
7 4 3 66 66 33 25 15 2 0 0 0 0 0 0 0 0 0 0 0 0 0 0 0 0 0 0 0 0 0 0 0 0 0 0 0 0 0 0 7 1 0 13 20
13 10 4 2 78 63 1 15 19 0 0 0 0 0 0 0 0 0 0 0 0 0 0 0 0 0 0 0 0 0 0 0 0 0 0 0 0 0 0 0 0 0 0 1
19 12 11 5 2 72 0 7 10 4 0 0 0 0 0 0 0 0 0 0 0 0 0 0 0 0 0 0 0 0 0 0 0 0 0 0 0 0 0 0 0 0 0 0
34 30 13 12 5 2 0 25 2 4 0 0 0 0 0 0 0 0 0 0 0 0 0 0 0 0 0 0 0 0 0 0 0 0 0 0 0 0 0 0 0 0 0 0
45 39 25 24 10 10 7 3 0 0 5 1 0 0 0 0 0 0 0 0 0 0 0 0 0 0 0 0 0 0 0 0 0 0 0 0 0 0 0 0 0 0 0 0
36 48 53 42 21 16 11 0 0 0 0 17 29 0 0 0 0 0 0 0 0 0 0 0 0 0 0 0 0 0 0 0 0 0 0 0 0 0 0 0 0 0 0 0
43 31 47 68 39 31 4 5 8 8 0 0 9 9 4 0 0 0 0 0 0 0 0 0 0 0 0 0 0 0 0 0 0 0 0 0 0 0 0 0 0 0 0 0
33 39 33 44 55 33 18 3 4 21 4 1 0 22 8 4 1 0 0 0 0 0 0 0 0 0 0 0 0 0 0 0 0 0 0 0 0 0 0 0 0 0 0 0
50 31 29 40 53 40 20 10 8 4 1 7 1 14 15 4 2 2 0 0 0 0 0 0 1 1 0 0 0 1 0 0 0 0 0 0 0 0 0 0 0 0 0 0
59 66 62 44 55 58 8 10 10 7 4 2 9 0 3 0 3 3 0 0 1 0 0 0 2 1 0 0 0 0 0 0 0 0 0 0 0 0 0 0 0 0 0 0
67 71 80 76 69 40 12 8 4 9 9 5 2 3 0 0 0 7 5 2 0 0 0 2 1 0 0 0 0 0 0 0 0 0 0 0 0 0 0 0 0 0 0 0
86 83 80 81 62 38 25 6 8 10 18 3 3 1 3 8 3 2 8 6 7 1 0 0 0 0 0 0 0 0 0 0 0 0 0 0 0 0 0 0 0 0 0 0
96 116 123 96 69 61 57 62 53 14 28 1 0 0 0 0 8 14 12 13 2 7 4 9 13 1 0 0 0 0 0 0 0 0 0 0 0 0 0 0 0 0 0 0
28 95 116 117 89 68 87 58 23 50 32 16 5 0 0 0 0 0 13 5 3 5 9 5 15 12 0 0 0 0 0 0 0 0 0 0 0 0 0 0 0 0 0 0
118 96 103 139 120 87 74 17 2 21 49 12 3 0 0 0 0 0 4 19 8 4 9 22 9 4 15 9 12 0 0 0 0 0 0 0 0 0 0 0 0 0 0 0
131 98 68 131 123 175 62 66 65 6 64 19 0 0 2 2 6 2 15 36 8 10 22 27 35 12 5 15 23 1 0 0 0 0 0 0 0 0 0 0 0 0 0 0
148 122 27 50 118 108 87 99 38 37 39 15 3 0 0 1 16 25 9 35 14 7 26 16 22 18 14 8 0 0 0 0 0 0 0 0 0 0 0 0 0 0 0 0
116 48 38 40 29 24 41 0 15 103 52 15 10 3 6 20 42 54 15 19 20 18 34 35 13 14 7 5 4 5 4 4 4 0 0 0 1 2 2 0 0 0 0 0
64 37 26 46 9 0 0 10 22 19 81 32 15 23 15 9 9 32 73 24 23 31 14 7 29 4 11 6 15 9 6 11 10 4 4 2 2 0 0 0 0 0 0 0
69 3 16 1 0 0 0 2 6 21 19 33 16 27 12 6 7 14 45 70 37 25 24 31 19 6 6 4 12 10 23 27 14 5 6 4 1 0 0 0 0 0 0 0
45 33 0 0 0 0 0 1 13 22 11 4 1 2 6 4 23 30 17 11 16 16 3 17 8 9 5 4 6 8 2 0 0 0 1 2 3 1 3 3 4 4 3 0
17 1 0 0 0 0 0 3 11 11 1 7 9 2 3 2 34 11 31 14 12 13 6 6 13 7 5 4 1 0 0 0 0 0 0 0 0 0 0 0 0 0 0 0
0 0 0 2 2 9 8 8 19 14 8 7 3 6 3 4 12 17 24 7 8 6 4 7 6 5 1 0 0 0 0 0 0 0 0 0 0 0 0 0 0 0 0 0
3 3 6 8 1 3 3 3 5 3 1 1 1 3 4 17 4 8 5 4 5 6 11 9 6 2 0 0 0 0 0 0 0 0 0 0 0 0 0 0 0 0 0 0
1 0 4 0 1 6 6 8 9 5 2 0 6 7 5 6 11 3 8 3 11 17 12 10 0 0 0 0 0 0 0 0 0 0 0 0 0 0 0 0 0 0 0 0
0 0 0 2 3 5 1 4 2 1 3 2 6 1 2 6 2 8 8 14 11 11 8 0 0 0 0 0 0 0 0 0 0 0 0 0 0 0 0 0 0 0 0 0